When you browse on this site, cookies collect data to enhance your experience and personalize the content and advertising you see.
Visit our Privacy Policy to learn more. By continuing to use the site, you agree to this use of cookies and data.
  • In France
  • List of Countries
  • For 7 days
  • Water Temperature
  • Satellite Maps
  • Weather Map
  • Weather Widgets
  • user-avatar
    Login

    Hourly Weather Shkoder

    Today, 22 January, Tuesday

    Time Temperature Precipitation Wind Pressure Humidity
    00:00 +4°C° 0.1 mm 3 mps 738 mmHg 79%
    01:00 +4°C° 0.1 mm 3 mps 738 mmHg 80%
    02:00 +4°C° 0.1 mm 3 mps 737 mmHg 80%
    03:00 +4°C° 0.1 mm 3 mps 736 mmHg 80%
    04:00 +4°C° 0.1 mm 3 mps 736 mmHg 80%
    05:00 +4°C° 0.3 mm 3 mps 735 mmHg 81%
    06:00 +4°C° 0.3 mm 3 mps 735 mmHg 81%
    07:00 +4°C° 0.3 mm 3 mps 735 mmHg 81%
    08:00 +4°C° 0.9 mm 3 mps 734 mmHg 83%
    09:00 +6°C° 0.9 mm 2 mps 734 mmHg 85%
    10:00 +6°C° 0.9 mm 2 mps 734 mmHg 86%
    11:00 +6°C° 1.9 mm 2 mps 733 mmHg 87%
    12:00 +6°C° 1.9 mm 2 mps 733 mmHg 88%
    13:00 +6°C° 1.9 mm 2 mps 732 mmHg 89%
    14:00 +6°C° 1.8 mm 2 mps 731 mmHg 89%
    15:00 +6°C° 1.8 mm 2 mps 731 mmHg 89%
    16:00 +6°C° 1.8 mm 2 mps 730 mmHg 89%
    17:00 +6°C° 1.3 mm 2 mps 730 mmHg 88%
    18:00 +6°C° 1.3 mm 2 mps 730 mmHg 88%
    19:00 +6°C° 1.3 mm 2 mps 730 mmHg 88%
    20:00 +6°C° 1.3 mm 2 mps 730 mmHg 89%
    21:00 +7°C° 1.3 mm 2 mps 730 mmHg 90%
    22:00 +7°C° 1.3 mm 2 mps 730 mmHg 92%
    23:00 +7°C° 1 mm 2 mps 730 mmHg 92%

    Tomorrow, 23 January, Wednesday

    Time Temperature Precipitation Wind Pressure Humidity
    00:00 +7°C° 1 mm 3 mps 730 mmHg 92%
    01:00 +7°C° 1 mm 3 mps 730 mmHg 91%
    02:00 +5°C° 1 mm 3 mps 730 mmHg 92%
    03:00 +6°C° 1 mm 2 mps 729 mmHg 92%
    04:00 +5°C° 1 mm 2 mps 729 mmHg 93%
    05:00 +5°C° 1 mm 2 mps 729 mmHg 93%
    06:00 +5°C° 1 mm 2 mps 729 mmHg 92%
    07:00 +5°C° 1 mm 2 mps 729 mmHg 92%
    08:00 +5°C° 0.8 mm 3 mps 729 mmHg 89%
    09:00 +7°C° 0.8 mm 3 mps 729 mmHg 87%
    10:00 +6°C° 0.8 mm 4 mps 729 mmHg 84%
    11:00 +6°C° 0.8 mm 4 mps 729 mmHg 83%
    12:00 +7°C° 0.8 mm 4 mps 728 mmHg 82%
    13:00 +7°C° 0.8 mm 4 mps 728 mmHg 81%
    14:00 +7°C° 0.4 mm 3 mps 727 mmHg 82%
    15:00 +7°C° 0.4 mm 2 mps 727 mmHg 83%
    16:00 +8°C° 0.4 mm 1 mps 727 mmHg 84%
    17:00 +7°C° 0 mm 1 mps 727 mmHg 85%
    18:00 +6°C° 0 mm 1 mps 727 mmHg 86%
    19:00 +5°C° 0 mm 2 mps 727 mmHg 86%
    20:00 +4°C° 0 mm 2 mps 727 mmHg 84%
    21:00 +4°C° 0 mm 2 mps 727 mmHg 82%
    22:00 +4°C° 0 mm 2 mps 727 mmHg 80%
    23:00 +3°C° 0 mm 3 mps 727 mmHg 79%

    Day after tomorrow, 24 January, Thursday

    Time Temperature Precipitation Wind Pressure Humidity
    00:00 +3°C° 0 mm 3 mps 726 mmHg 78%
    01:00 +3°C° 0 mm 3 mps 726 mmHg 77%
    02:00 +3°C° 0 mm 3 mps 726 mmHg 77%
    03:00 +3°C° 0 mm 3 mps 725 mmHg 77%
    04:00 +3°C° 0 mm 3 mps 725 mmHg 76%
    05:00 +3°C° 0 mm 3 mps 725 mmHg 76%
    06:00 +3°C° 0 mm 3 mps 725 mmHg 76%
    07:00 +3°C° 0 mm 3 mps 725 mmHg 76%
    08:00 +4°C° 0 mm 3 mps 725 mmHg 74%
    09:00 +5°C° 0 mm 3 mps 725 mmHg 73%
    10:00 +6°C° 0 mm 4 mps 725 mmHg 72%
    11:00 +7°C° 0.1 mm 3 mps 725 mmHg 72%
    12:00 +8°C° 0.1 mm 3 mps 725 mmHg 73%
    13:00 +8°C° 0.1 mm 3 mps 724 mmHg 73%
    14:00 +7°C° 0.3 mm 3 mps 725 mmHg 75%
    15:00 +7°C° 0.3 mm 3 mps 725 mmHg 77%
    16:00 +6°C° 0.3 mm 2 mps 725 mmHg 78%
    17:00 +5°C° 0.1 mm 3 mps 725 mmHg 78%
    18:00 +4°C° 0.1 mm 3 mps 726 mmHg 78%
    19:00 +4°C° 0.1 mm 4 mps 726 mmHg 78%
    20:00 +4°C° 0 mm 4 mps 726 mmHg 77%
    21:00 +3°C° 0 mm 4 mps 726 mmHg 76%
    22:00 +2°C° 0 mm 5 mps 726 mmHg 75%
    23:00 +2°C° 0 mm 5 mps 726 mmHg 75%

    25 January, Friday

    Time Temperature Precipitation Wind Pressure Humidity
    00:00 +2°C° 0 mm 5 mps 726 mmHg 75%
    01:00 +2°C° 0 mm 5 mps 726 mmHg 74%
    02:00 +2°C° 0 mm 5 mps 726 mmHg 74%
    03:00 +2°C° 0 mm 5 mps 726 mmHg 74%
    04:00 +2°C° 0 mm 5 mps 726 mmHg 74%
    05:00 +2°C° 0 mm 5 mps 726 mmHg 73%
    06:00 +1°C° 0 mm 5 mps 726 mmHg 73%
    07:00 +1°C° 0 mm 5 mps 726 mmHg 73%
    08:00 +2°C° 0 mm 6 mps 726 mmHg 71%
    09:00 +3°C° 0 mm 6 mps 726 mmHg 69%
    10:00 +4°C° 0 mm 6 mps 726 mmHg 67%
    11:00 +4°C° 0.1 mm 6 mps 726 mmHg 67%
    12:00 +4°C° 0.1 mm 6 mps 726 mmHg 68%
    13:00 +4°C° 0.1 mm 6 mps 726 mmHg 68%
    14:00 +5°C° 0.5 mm 5 mps 726 mmHg 71%
    15:00 +3°C° 0.5 mm 5 mps 726 mmHg 74%
    16:00 +3°C° 0.5 mm 4 mps 726 mmHg 76%
    17:00 +3°C° 0.2 mm 4 mps 726 mmHg 76%
    18:00 +3°C° 0.2 mm 4 mps 727 mmHg 75%
    19:00 +1°C° 0.2 mm 4 mps 727 mmHg 74%
    20:00 +1°C° 0 mm 4 mps 727 mmHg 73%
    21:00 +1°C° 0 mm 4 mps 728 mmHg 72%
    22:00 +1°C° 0 mm 5 mps 728 mmHg 71%
    23:00 +1°C° 0 mm 4 mps 728 mmHg 71%

    26 January, Saturday

    Time Temperature Precipitation Wind Pressure Humidity
    00:00 0°C° 0 mm 4 mps 728 mmHg 70%
    01:00 0°C° 0 mm 4 mps 728 mmHg 70%
    02:00 0°C° 0 mm 4 mps 728 mmHg 70%
    03:00 0°C° 0 mm 4 mps 728 mmHg 70%
    04:00 0°C° 0 mm 4 mps 728 mmHg 70%
    05:00 0°C° 0 mm 5 mps 729 mmHg 70%
    06:00 -1°C° 0 mm 5 mps 729 mmHg 70%
    07:00 -1°C° 0 mm 5 mps 730 mmHg 70%
    08:00 0°C° 0 mm 5 mps 730 mmHg 68%
    09:00 +1°C° 0 mm 5 mps 730 mmHg 66%
    10:00 +2°C° 0 mm 5 mps 730 mmHg 64%
    11:00 +4°C° 0 mm 4 mps 730 mmHg 63%
    12:00 +4°C° 0 mm 4 mps 730 mmHg 62%
    13:00 +5°C° 0 mm 4 mps 730 mmHg 62%
    14:00 +4°C° 0 mm 4 mps 730 mmHg 63%
    15:00 +4°C° 0 mm 3 mps 730 mmHg 65%
    16:00 +3°C° 0 mm 3 mps 730 mmHg 67%
    17:00 +2°C° 0 mm 3 mps 730 mmHg 69%
    18:00 +1°C° 0 mm 3 mps 731 mmHg 72%
    19:00 +1°C° 0 mm 3 mps 731 mmHg 74%
    20:00 0°C° 0 mm 3 mps 731 mmHg 74%
    21:00 0°C° 0 mm 3 mps 731 mmHg 74%
    22:00 +1°C° 0 mm 2 mps 731 mmHg 74%
    23:00 +1°C° 0 mm 2 mps 731 mmHg 73%

    27 January, Sunday

    Time Temperature Precipitation Wind Pressure Humidity
    00:00 +1°C° 0 mm 2 mps 731 mmHg 72%
    01:00 +1°C° 0 mm 2 mps 731 mmHg 72%
    02:00 +1°C° 0 mm 2 mps 731 mmHg 71%
    03:00 +2°C° 0 mm 1 mps 731 mmHg 69%
    04:00 +2°C° 0 mm 1 mps 731 mmHg 68%
    05:00 +2°C° 0 mm 1 mps 731 mmHg 68%
    06:00 +2°C° 0 mm 1 mps 731 mmHg 67%
    07:00 +2°C° 0 mm 1 mps 731 mmHg 67%
    08:00 +3°C° 0 mm 1 mps 731 mmHg 66%
    09:00 +5°C° 0 mm 1 mps 731 mmHg 66%
    10:00 +6°C° 0 mm 1 mps 731 mmHg 65%
    11:00 +6°C° 0.1 mm 1 mps 730 mmHg 70%
    12:00 +5°C° 0.1 mm 2 mps 730 mmHg 74%
    13:00 +6°C° 0.1 mm 2 mps 730 mmHg 79%
    14:00 +6°C° 0.1 mm 2 mps 730 mmHg 81%
    15:00 +7°C° 0.1 mm 1 mps 730 mmHg 83%
    16:00 +7°C° 0.1 mm 1 mps 730 mmHg 85%
    17:00 +6°C° 0.2 mm 1 mps 730 mmHg 85%
    18:00 +5°C° 0.2 mm 2 mps 730 mmHg 85%
    19:00 +5°C° 0.2 mm 2 mps 730 mmHg 85%
    20:00 +5°C° 0.5 mm 2 mps 730 mmHg 84%
    21:00 +5°C° 0.5 mm 2 mps 730 mmHg 83%
    22:00 +5°C° 0.5 mm 2 mps 730 mmHg 82%
    23:00 +5°C° 0.8 mm 2 mps 730 mmHg 83%
    Show more